Location: PSU-Greenbush Astrophysical Observatory
(37.5140°N, 94.9880°W)
Time: 15:58:55
(UTC-06:00)

Altair - Pass Details

Date: 30 January 2020
Orbit: 1502 x 1682 km, 47.2° (Epoch: 19 February)

Event Time Altitude Azimuth Distance (km) Brightness Sun altitude
Rises 05:30:43 0° 201° (SSW) 4,774 9.9 -22.9°
Reaches altitude 10° 05:34:06 10° 193° (SSW) 3,817 9.5 -22.2°
Maximum altitude 05:42:43 36° 130° (SE) 2,384 8.9 -20.5°
Drops below altitude 10° 05:51:33 10° 69° (ENE) 3,932 10.5 -18.8°
Sets 05:55:03 0° 61° (ENE) 4,933 11.0 -18.1°
